Theta_e
314 314 315 315 317 317 317 317 317 317 317 316 315 315 316 316 317 317 317 316 316 316 316 315 315 313 311 309 306 305 304 303 303 301 300 299 300 299 298 297 297 297 297 297
315 316 316 316 316 316 316 316 317 316 316 315 314 315 315 314 315 316 316 316 316 315 316 316 315 312 311 309 307 305 305 304 304 303 301 299 299 298 297 297 297 297 297 297
314 316 316 316 316 316 316 315 315 315 315 313 313 313 313 313 314 315 315 316 315 314 314 315 315 313 310 308 307 306 306 305 304 303 301 299 297 296 296 297 297 297 296 296
315 315 315 314 315 314 314 315 315 315 315 315 314 315 314 315 313 311 314 315 315 315 314 314 314 312 311 309 307 307 306 305 304 303 302 301 300 299 299 299 298 296 295 295
314 314 314 315 314 314 315 313 313 314 315 315 315 314 314 313 313 313 312 316 316 314 314 314 314 313 311 309 307 307 305 304 303 303 303 302 301 299 298 297 295 294 294 294
312 312 313 314 311 312 310 313 312 312 311 313 313 314 313 313 314 313 311 314 315 314 314 313 312 311 310 308 307 306 305 304 303 302 301 302 302 300 297 296 295 294 294 294
313 312 312 311 313 310 311 314 315 316 314 316 313 313 315 314 311 311 310 314 314 314 313 312 311 310 309 308 307 306 305 305 303 302 301 302 301 299 297 296 296 295 294 294
315 317 313 309 312 313 310 313 315 315 314 315 313 314 314 313 312 313 314 315 313 313 312 311 311 311 310 309 309 308 308 306 305 304 303 302 300 300 298 296 295 294 294 293
313 313 310 310 311 312 312 312 314 314 308 312 315 313 312 313 311 310 311 312 312 311 311 310 310 310 310 310 310 310 308 307 306 306 304 304 301 299 298 296 295 294 293 293
314 314 311 306 307 308 309 310 313 313 310 310 313 310 312 313 313 309 309 308 311 311 310 310 309 310 310 309 309 308 308 308 307 305 304 303 302 298 297 295 294 293 293 293
313 313 311 306 306 310 306 309 309 311 314 313 313 312 309 312 313 310 308 311 312 311 311 311 311 310 310 309 308 308 308 308 306 305 304 302 301 299 296 295 294 293 292 291
312 314 314 313 310 307 309 311 311 312 313 310 313 314 313 309 309 308 308 311 311 311 311 311 310 310 310 310 309 309 309 308 308 305 303 301 299 298 295 294 293 292 291 291
311 312 314 313 311 305 307 309 310 311 310 313 314 314 312 312 309 309 308 311 311 311 311 311 311 310 311 310 309 309 308 308 306 303 301 299 297 296 295 293 292 291 290 290
311 311 312 314 313 312 310 310 308 310 312 312 312 312 312 311 311 311 312 312 312 312 312 312 311 310 310 310 309 309 308 307 306 303 301 299 297 296 294 292 291 290 290 289
307 311 311 312 312 311 311 311 311 311 311 310 310 310 311 311 311 311 312 312 311 311 311 311 311 311 310 309 308 308 307 306 305 302 300 298 295 294 292 290 289 289 288 289
308 310 309 311 310 310 311 310 310 310 310 312 311 312 311 310 310 310 310 310 310 311 311 311 311 311 310 310 309 308 307 306 304 302 299 297 294 293 291 289 289 288 288 288
308 308 309 312 310 310 312 311 311 311 311 311 311 311 311 311 311 311 311 311 311 312 312 311 312 311 310 309 308 308 307 305 302 300 297 295 294 292 290 288 288 287 288 287
311 310 312 314 313 313 311 310 310 311 311 311 311 311 311 311 311 311 311 312 312 311 311 311 311 310 309 308 308 307 306 303 301 299 297 295 293 292 290 288 287 287 287 287
312 313 313 313 314 313 311 310 310 311 311 310 311 311 311 311 311 311 311 312 311 311 311 311 310 310 309 308 307 306 304 302 299 298 297 295 292 290 289 288 287 287 287 286
309 311 313 314 315 315 312 310 309 309 311 310 310 311 311 310 311 310 311 310 310 311 310 310 310 309 309 308 307 306 305 302 299 297 295 293 291 289 288 287 287 287 286 286
310 310 312 313 314 313 310 309 308 310 312 310 310 310 309 308 309 310 310 310 310 310 309 309 309 308 308 307 305 305 303 303 302 297 295 292 289 288 286 286 286 286 286 285
311 311 311 311 312 313 306 308 309 305 304 305 303 303 303 304 305 306 307 308 307 307 308 308 307 307 306 306 304 303 302 300 298 296 293 290 288 286 285 285 286 285 285 284
305 300 298 302 305 302 300 300 299 301 303 302 301 301 302 304 305 305 305 306 306 306 307 307 306 304 304 304 302 302 301 299 295 294 291 289 286 285 285 285 284 285 285 282
294 295 296 297 300 298 297 299 300 300 300 298 299 300 301 302 303 302 302 302 303 305 305 305 305 305 305 305 301 299 296 295 293 291 287 286 284 284 283 283 283 285 282 281
293 293 294 292 294 294 294 295 295 295 295 294 294 294 295 296 296 297 298 299 300 302 304 304 304 304 305 304 300 298 297 294 291 288 286 284 283 283 284 284 286 285 281 281
291 291 291 292 292 292 292 291 291 291 290 290 289 290 291 293 294 294 295 295 298 300 300 300 300 301 302 302 301 298 294 292 289 287 284 282 282 282 284 284 282 279 279 278
Wind_Speed
13 5 12 20 15 17 13 15 15 21 10 9 14 17 18 22 22 22 31 36 35 38 35 35 38 37 36 39 41 40 39 37 36 38 38 37 35 32 31 28 28 26 23 20
5 16 19 10 11 7 9 12 19 15 10 9 11 14 11 10 20 29 30 33 41 28 25 30 35 38 37 40 42 41 40 39 38 40 38 36 34 34 31 30 30 28 25 22
20 8 18 14 12 12 19 13 19 17 13 4 5 8 12 11 28 33 37 40 41 32 27 26 36 37 37 41 44 43 41 39 39 40 39 38 36 35 36 37 35 32 29 25
17 21 19 17 15 10 22 9 11 12 7 10 8 7 9 6 9 10 27 36 37 27 23 26 34 36 37 39 41 41 39 39 38 40 41 44 44 43 42 38 34 32 29 27
7 4 7 13 21 11 17 4 4 5 7 7 8 8 9 11 10 13 11 32 38 24 22 28 30 36 34 35 39 39 40 40 39 41 41 43 44 42 38 36 35 34 30 28
16 2 2 4 3 1 4 0 4 3 2 9 11 11 5 9 11 6 10 29 32 23 15 19 23 28 32 34 37 39 40 40 41 41 42 43 42 43 42 41 39 34 31 30
6 19 4 4 2 2 4 3 3 3 3 12 14 14 20 6 8 10 12 23 25 17 17 17 22 29 33 36 37 39 40 41 42 42 42 42 43 42 44 44 41 37 34 33
4 6 16 9 16 8 9 9 5 7 6 20 5 8 6 9 12 27 29 37 16 19 18 19 23 26 31 36 36 38 41 42 42 41 41 41 42 44 47 47 43 40 37 33
7 9 3 5 2 9 5 6 4 3 1 5 11 12 8 4 11 11 20 16 18 18 18 20 23 26 30 33 34 37 40 42 41 41 40 41 42 45 49 48 45 41 37 34
4 9 6 2 4 3 3 3 2 3 3 8 20 11 15 6 16 9 6 10 16 16 18 20 23 27 30 31 32 36 40 42 41 42 42 43 41 44 47 48 47 43 40 37
5 6 3 6 8 9 3 4 5 2 5 10 15 15 6 5 3 9 9 14 14 14 14 17 19 23 28 32 34 36 38 41 45 44 43 44 43 43 47 48 47 44 39 36
3 3 6 18 5 3 8 14 13 10 14 4 8 27 6 8 10 10 9 17 13 14 15 17 20 22 28 32 33 35 38 42 45 47 46 45 45 44 47 47 46 42 39 35
5 3 4 9 14 4 5 5 7 8 8 17 18 26 8 17 11 11 12 17 17 19 20 22 27 30 31 33 34 38 42 43 43 46 46 46 46 46 48 47 44 41 37 33
5 6 15 15 16 13 11 16 9 14 12 24 23 32 33 27 25 24 31 24 27 32 28 28 28 32 36 38 39 41 44 43 43 44 45 47 48 48 48 44 41 39 36 33
5 9 20 26 27 31 32 31 30 20 19 21 28 26 29 32 20 25 26 31 23 27 31 34 35 38 40 40 40 42 44 44 44 43 44 46 47 47 45 39 38 38 36 33
11 8 16 22 27 32 34 33 33 37 35 35 38 35 35 34 42 33 39 36 33 33 35 33 32 33 34 39 41 41 44 45 44 42 43 45 46 46 42 37 38 38 35 32
11 9 8 18 24 24 21 34 37 34 33 33 30 41 46 34 33 36 38 38 37 34 40 34 33 34 35 30 31 33 38 42 41 40 41 43 44 43 39 36 38 38 34 31
16 17 13 18 15 23 24 25 33 38 37 35 31 33 34 35 50 46 36 38 42 41 38 43 43 34 24 23 24 25 33 38 39 40 41 43 44 41 38 37 40 38 34 30
23 21 13 11 17 22 7 18 27 28 32 32 29 31 34 46 40 32 44 46 41 44 48 45 38 30 27 25 24 24 28 33 38 40 41 43 42 40 40 41 41 36 32 28
26 22 19 18 16 19 16 24 27 20 15 18 22 27 25 19 13 17 51 37 27 29 30 29 31 24 22 23 22 22 25 30 35 37 40 40 39 39 39 40 38 35 30 27
9 15 24 22 18 13 7 14 7 8 14 19 27 24 15 10 11 28 31 28 29 26 22 23 23 24 21 22 24 25 28 31 31 35 38 40 39 39 39 38 37 34 29 26
22 12 12 13 18 20 13 7 10 13 30 22 21 28 27 25 28 26 26 24 20 21 22 28 29 27 25 24 27 30 33 30 32 35 37 38 37 39 41 40 36 30 27 26
2 5 4 5 6 15 10 12 35 32 16 15 25 27 25 28 25 26 27 27 26 26 24 26 23 27 26 28 30 32 35 34 35 35 37 36 38 42 42 38 32 28 28 25
12 23 14 12 7 23 41 37 23 21 19 24 27 27 27 29 34 38 38 42 43 34 29 30 28 27 32 38 35 34 35 36 35 35 36 37 44 44 41 36 31 30 27 24
13 20 17 24 19 28 29 27 32 37 34 34 34 34 35 33 35 34 38 42 41 38 31 29 34 35 36 36 36 37 40 39 37 37 39 43 46 44 39 34 32 30 26 22
13 16 14 18 24 22 29 38 37 36 34 33 36 37 32 28 30 32 36 36 39 39 37 36 36 35 35 37 37 40 43 43 42 42 45 50 49 45 40 37 33 28 23 21
Wind_Direction
190 185 215 222 214 232 253 264 264 267 254 183 236 240 251 261 264 250 258 261 260 259 261 251 241 226 226 224 222 226 226 226 222 220 222 225 228 229 232 234 238 241 244 249
229 226 230 244 253 266 270 269 266 276 294 208 248 252 252 260 263 261 258 264 265 263 251 245 231 221 220 221 220 224 229 229 227 226 227 229 232 232 235 236 240 242 244 247
223 197 215 235 252 252 248 249 259 263 283 222 310 269 252 245 249 257 261 261 264 262 246 239 219 217 218 218 220 225 230 230 228 229 227 228 229 231 231 233 236 238 240 243
251 241 246 255 250 225 265 235 257 266 284 259 181 283 231 220 227 226 249 261 266 261 247 230 217 215 223 224 226 227 228 230 228 229 229 230 234 233 236 240 240 238 239 242
220 202 199 233 241 228 263 207 232 270 265 301 258 281 221 192 232 240 242 257 268 262 258 219 222 224 231 225 222 223 224 228 228 228 231 233 235 238 239 239 236 238 239 240
257 145 245 228 71 359 118 86 214 231 212 255 210 216 226 205 213 221 224 244 259 264 234 220 223 223 222 221 220 220 221 225 227 229 231 236 237 235 233 233 235 237 240 241
230 234 179 142 189 154 195 141 289 293 195 252 187 222 241 196 177 188 211 234 248 201 220 221 216 213 215 217 218 221 222 223 226 230 233 238 239 237 236 238 239 237 238 240
239 272 183 177 208 166 184 183 178 240 251 275 201 250 236 205 217 214 222 244 228 217 219 222 223 219 216 218 222 222 224 223 226 230 233 239 240 239 237 238 238 238 240 242
208 245 44 152 124 161 182 202 196 262 115 298 253 267 311 273 238 220 219 198 197 207 224 223 224 226 224 224 230 230 228 226 227 231 232 238 240 239 238 237 236 236 237 239
259 262 186 88 47 283 217 165 131 228 253 243 276 278 270 208 233 223 192 206 222 236 238 240 234 233 234 235 239 235 232 231 230 232 234 238 241 240 240 238 236 235 236 237
235 230 210 123 205 191 169 236 223 268 193 241 269 273 278 139 153 178 208 214 237 224 236 239 248 241 244 248 245 238 234 234 233 235 237 238 240 241 241 239 236 234 235 235
212 235 238 237 233 236 235 221 191 226 237 230 237 262 222 153 164 162 193 197 209 243 232 246 258 257 251 249 245 244 242 239 239 239 236 237 238 241 241 239 235 231 232 234
4 319 329 284 278 217 220 227 238 256 262 250 247 263 174 252 250 225 197 210 229 236 243 252 253 250 258 257 252 253 247 247 246 240 236 237 238 239 241 239 234 230 230 234
117 238 244 246 249 285 266 270 248 244 243 252 250 260 272 266 272 275 275 269 261 262 260 267 260 261 262 262 259 255 252 254 249 241 239 238 239 240 240 238 234 229 230 233
176 233 236 243 248 259 258 262 275 268 266 264 275 268 272 272 268 265 269 273 265 271 277 275 272 272 270 263 259 257 254 254 249 242 242 240 237 238 239 236 232 227 228 233
179 241 227 233 236 243 252 257 260 256 255 247 250 266 258 265 275 276 272 274 278 280 278 276 275 272 268 268 265 260 256 253 248 244 242 236 235 236 235 232 228 225 228 233
178 203 202 244 231 237 244 238 243 252 247 246 246 241 253 258 256 262 271 276 277 275 276 274 272 278 286 275 266 264 261 253 245 242 236 234 233 232 232 230 223 222 226 233
220 218 236 249 234 230 230 241 233 239 243 248 248 253 253 253 257 259 265 271 274 273 279 279 282 285 276 266 258 254 249 245 241 236 233 231 230 229 227 225 220 220 224 231
226 235 243 240 236 253 273 230 223 221 238 242 254 250 250 253 262 280 266 260 262 272 275 276 278 280 275 265 259 248 240 237 235 233 231 230 228 225 220 213 213 218 224 229
233 233 237 241 248 249 244 237 251 251 259 254 241 247 246 247 248 252 265 272 267 272 272 270 273 268 265 263 254 242 238 233 230 229 226 226 225 223 217 211 210 215 220 230
219 227 234 241 251 255 225 266 357 245 268 252 263 263 277 265 263 264 279 286 288 280 271 283 270 266 263 264 253 247 238 234 233 230 226 223 220 216 211 208 210 213 217 226
248 233 229 234 238 248 356 316 263 332 325 353 4 352 343 336 333 335 333 334 324 313 311 300 284 267 266 266 259 253 245 239 232 230 227 221 214 206 204 207 208 210 216 222
303 6 307 312 332 318 292 307 304 301 312 338 323 319 324 323 329 334 331 325 319 311 307 298 288 276 277 271 261 255 250 242 234 231 224 217 207 201 201 204 206 211 220 222
304 297 286 306 325 307 296 305 325 330 334 330 325 319 319 314 306 306 307 303 302 302 301 295 282 282 289 285 264 256 249 241 235 231 222 208 201 196 196 199 202 212 216 219
285 312 302 297 290 304 297 312 309 308 308 314 311 306 300 295 289 292 297 298 299 300 294 284 278 278 278 272 265 257 250 241 233 226 218 205 199 196 193 198 206 212 211 221
272 275 285 286 294 295 302 316 316 316 318 311 311 304 300 303 300 303 297 295 290 289 289 287 283 281 280 278 266 256 248 241 229 218 209 202 196 192 193 194 196 200 206 207